Weather History for KBHM - September, 2013

Change the Weather History Date:

Sunday, September 29, 2013

  Actual Average Record
Temperature  
Mean Temperature 68 °F 70 °F  
Max Temperature 78 °F 81 °F 96 °F (1904)
Min Temperature 58 °F 59 °F 40 °F (1967)
Degree Days  
Heating Degree Days 0 1  
Month to date heating degree days 0 7  
Since 1 July heating degree days 0 7  
Cooling Degree Days 3 6  
Month to date cooling degree days 312 295  
Year to date cooling degree days 1837 1945  
Growing Degree Days 18 (Base 50)    
Moisture  
Dew Point 56 °F    
Average Humidity 64    
Maximum Humidity 84    
Minimum Humidity 43    
Precipitation  
Precipitation 0.00 in 0.14 in 2.37 in (1964)
Month to date precipitation 2.46 3.77  
Year to date precipitation 54.72 40.85  
Sea Level Pressure  
Sea Level Pressure 30.08 in    
Wind  
Wind Speed 3 mph (East)    
Max Wind Speed 12 mph    
Max Gust Speed 16 mph    
Visibility 10 miles    
Events      
T = Trace of Precipitation, MM = Missing Value Source: NWS Daily Summary

Daily Weather History Graph

Daily Weather History Graph

Search for Another Location

Airport or City:

Trip Planner

Search our weather history database for the weather conditions in past years. The results will help you decide how hot, cold, wet, or windy it might be!

Date:

Astronomy

Sep. 29, 2013 Rise Set
Actual Time 6:40 AM CDT 6:33 PM CDT
Civil Twilight 6:15 AM CDT 6:58 PM CDT
Nautical Twilight 5:46 AM CDT 7:27 PM CDT
Astronomical Twilight 5:17 AM CDT 7:56 PM CDT
Moon 1:34 AM CDT (9/29) 3:17 PM CDT (9/29)
Length of Visible Light 12h 43m
Length of Day
11h 53m
Waning Crescent, 27% of the Moon is Illuminated
Sep 29
Waning Crescent
Oct 4
New
Oct 11
First Quarter
Oct 18
Full
Oct 26
Last Quarter

Hourly Weather History & Observations

Time (CDT) Temp. Dew Point Humidity Pressure Visibility Wind Dir Wind Speed Gust Speed Precip Events Conditions
12:53 AM 64.0 °F 55.0 °F 73% 30.13 in 10.0 mi ESE 4.6 mph - N/A   Clear
1:53 AM 63.0 °F 55.0 °F 75% 30.12 in 10.0 mi ESE 3.5 mph - N/A   Clear
2:53 AM 62.1 °F 54.0 °F 75% 30.11 in 10.0 mi Calm Calm - N/A   Clear
3:53 AM 61.0 °F 54.0 °F 78% 30.11 in 10.0 mi NNE 4.6 mph - N/A   Clear
4:53 AM 62.1 °F 53.1 °F 72% 30.10 in 10.0 mi Calm Calm - N/A   Clear
5:53 AM 59.0 °F 54.0 °F 83% 30.11 in 10.0 mi NNE 4.6 mph - N/A   Partly Cloudy
6:53 AM 59.0 °F 53.1 °F 81% 30.13 in 10.0 mi NNE 3.5 mph - N/A   Scattered Clouds
7:53 AM 63.0 °F 54.0 °F 72% 30.13 in 10.0 mi Calm Calm - N/A   Scattered Clouds
8:53 AM 64.9 °F 54.0 °F 68% 30.13 in 10.0 mi ESE 8.1 mph - N/A   Scattered Clouds
9:53 AM 70.0 °F 55.0 °F 59% 30.14 in 10.0 mi Variable 4.6 mph - N/A   Scattered Clouds
10:53 AM 73.0 °F 54.0 °F 51% 30.12 in 10.0 mi ESE 10.4 mph 16.1 mph N/A   Scattered Clouds
11:53 AM 73.0 °F 55.0 °F 53% 30.11 in 10.0 mi SSE 5.8 mph - N/A   Mostly Cloudy
12:53 PM 75.0 °F 54.0 °F 48% 30.09 in 10.0 mi Calm Calm - N/A   Mostly Cloudy
1:53 PM 77.0 °F 54.0 °F 45% 30.05 in 10.0 mi ESE 5.8 mph - N/A   Mostly Cloudy
2:53 PM 75.9 °F 54.0 °F 46% 30.03 in 10.0 mi Calm Calm - N/A   Overcast
3:53 PM 75.0 °F 55.0 °F 50% 30.02 in 10.0 mi East 4.6 mph - N/A   Overcast
4:53 PM 73.9 °F 55.9 °F 53% 30.03 in 10.0 mi ESE 5.8 mph - N/A   Overcast
5:53 PM 73.0 °F 57.0 °F 57% 30.03 in 10.0 mi Calm Calm - N/A   Overcast
6:53 PM 72.0 °F 57.9 °F 61% 30.04 in 10.0 mi Calm Calm - N/A   Overcast
7:53 PM 70.0 °F 59.0 °F 68% 30.04 in 10.0 mi East 3.5 mph - N/A   Overcast
8:53 PM 68.0 °F 60.1 °F 76% 30.05 in 10.0 mi Calm Calm - N/A   Mostly Cloudy
9:53 PM 66.9 °F 60.1 °F 79% 30.04 in 10.0 mi ESE 4.6 mph - N/A   Mostly Cloudy
10:53 PM 64.9 °F 59.0 °F 81% 30.04 in 10.0 mi Calm Calm - N/A   Mostly Cloudy
11:53 PM 66.0 °F 60.1 °F 81% 30.02 in 10.0 mi Calm Calm - N/A   Mostly Cloudy